When you browse on this site, cookies collect data to enhance your experience and personalize the content and advertising you see.
Visit our Privacy Policy to learn more. By continuing to use the site, you agree to this use of cookies and data.
  • In United Kingdom
  • List of Countries
  • For 7 days
  • Water Temperature
  • Weather Map
  • Weather Widgets
  • user-avatar
    Login

    Hourly Weather Lubumbashi

    Today, 25 January, Saturday

    Time Temperature Precipitation Wind Pressure Humidity
    00:00 +15°C° 0 mm 7 mps 723 mmHg 16%
    01:00 +15°C° 0 mm 7 mps 723 mmHg 17%
    02:00 +14°C° 0 mm 7 mps 722 mmHg 18%
    03:00 +12°C° 0 mm 7 mps 723 mmHg 19%
    04:00 +12°C° 0 mm 7 mps 723 mmHg 20%
    05:00 +12°C° 0 mm 8 mps 723 mmHg 21%
    06:00 +12°C° 0 mm 8 mps 723 mmHg 21%
    07:00 +13°C° 0 mm 9 mps 724 mmHg 21%
    08:00 +13°C° 0 mm 9 mps 725 mmHg 20%
    09:00 +17°C° 0 mm 9 mps 725 mmHg 18%
    10:00 +21°C° 0 mm 9 mps 725 mmHg 16%
    11:00 +23°C° 0 mm 9 mps 726 mmHg 13%
    12:00 +26°C° 0 mm 8 mps 725 mmHg 12%
    13:00 +28°C° 0 mm 8 mps 724 mmHg 10%
    14:00 +30°C° 0 mm 7 mps 723 mmHg 9%
    15:00 +29°C° 0 mm 7 mps 723 mmHg 9%
    16:00 +29°C° 0 mm 7 mps 723 mmHg 9%
    17:00 +29°C° 0 mm 8 mps 722 mmHg 10%
    18:00 +26°C° 0 mm 7 mps 722 mmHg 11%
    19:00 +23°C° 0 mm 7 mps 722 mmHg 13%
    20:00 +21°C° 0 mm 6 mps 723 mmHg 15%
    21:00 +20°C° 0 mm 6 mps 723 mmHg 15%
    22:00 +18°C° 0 mm 7 mps 723 mmHg 16%
    23:00 +17°C° 0 mm 7 mps 723 mmHg 16%

    Tomorrow, 26 January, Sunday

    Time Temperature Precipitation Wind Pressure Humidity
    00:00 +17°C° 0 mm 7 mps 723 mmHg 18%
    01:00 +16°C° 0 mm 7 mps 722 mmHg 19%
    02:00 +15°C° 0 mm 7 mps 722 mmHg 20%
    03:00 +15°C° 0 mm 7 mps 722 mmHg 21%
    04:00 +14°C° 0 mm 7 mps 722 mmHg 23%
    05:00 +14°C° 0 mm 6 mps 722 mmHg 24%
    06:00 +14°C° 0 mm 7 mps 723 mmHg 25%
    07:00 +15°C° 0 mm 8 mps 724 mmHg 25%
    08:00 +15°C° 0 mm 9 mps 724 mmHg 25%
    09:00 +18°C° 0 mm 9 mps 724 mmHg 21%
    10:00 +21°C° 0 mm 9 mps 724 mmHg 18%
    11:00 +24°C° 0 mm 9 mps 725 mmHg 14%
    12:00 +27°C° 0 mm 8 mps 724 mmHg 12%
    13:00 +29°C° 0 mm 7 mps 723 mmHg 10%
    14:00 +32°C° 0 mm 7 mps 723 mmHg 9%
    15:00 +32°C° 0 mm 6 mps 722 mmHg 9%
    16:00 +30°C° 0 mm 6 mps 722 mmHg 9%
    17:00 +30°C° 0 mm 6 mps 721 mmHg 9%
    18:00 +28°C° 0 mm 6 mps 721 mmHg 11%
    19:00 +25°C° 0 mm 5 mps 721 mmHg 13%
    20:00 +21°C° 0 mm 5 mps 722 mmHg 15%
    21:00 +21°C° 0 mm 5 mps 722 mmHg 16%
    22:00 +20°C° 0 mm 6 mps 722 mmHg 16%
    23:00 +19°C° 0 mm 6 mps 722 mmHg 17%

    Day after tomorrow, 27 January, Monday

    Time Temperature Precipitation Wind Pressure Humidity
    00:00 +17°C° 0 mm 6 mps 722 mmHg 19%
    01:00 +16°C° 0 mm 6 mps 721 mmHg 21%
    02:00 +15°C° 0 mm 6 mps 721 mmHg 23%
    03:00 +15°C° 0 mm 6 mps 721 mmHg 24%
    04:00 +14°C° 0 mm 6 mps 721 mmHg 26%
    05:00 +13°C° 0 mm 6 mps 721 mmHg 27%
    06:00 +14°C° 0 mm 6 mps 722 mmHg 26%
    07:00 +15°C° 0 mm 7 mps 723 mmHg 26%
    08:00 +16°C° 0 mm 8 mps 723 mmHg 25%
    09:00 +20°C° 0 mm 8 mps 723 mmHg 21%
    10:00 +23°C° 0 mm 8 mps 723 mmHg 18%
    11:00 +27°C° 0 mm 8 mps 724 mmHg 14%
    12:00 +28°C° 0 mm 7 mps 723 mmHg 12%
    13:00 +30°C° 0 mm 6 mps 722 mmHg 11%
    14:00 +32°C° 0 mm 5 mps 721 mmHg 9%
    15:00 +32°C° 0 mm 5 mps 721 mmHg 9%
    16:00 +32°C° 0 mm 4 mps 720 mmHg 9%
    17:00 +32°C° 0 mm 4 mps 719 mmHg 9%
    18:00 +29°C° 0 mm 4 mps 720 mmHg 10%
    19:00 +26°C° 0 mm 4 mps 720 mmHg 12%
    20:00 +22°C° 0 mm 4 mps 720 mmHg 14%
    21:00 +21°C° 0 mm 4 mps 720 mmHg 14%
    22:00 +21°C° 0 mm 4 mps 720 mmHg 15%
    23:00 +20°C° 0 mm 5 mps 720 mmHg 16%

    28 January, Tuesday

    Time Temperature Precipitation Wind Pressure Humidity
    00:00 +19°C° 0 mm 5 mps 720 mmHg 17%
    01:00 +17°C° 0 mm 5 mps 720 mmHg 18%
    02:00 +16°C° 0 mm 5 mps 720 mmHg 20%
    03:00 +15°C° 0 mm 5 mps 720 mmHg 21%
    04:00 +15°C° 0 mm 5 mps 720 mmHg 22%
    05:00 +14°C° 0 mm 5 mps 720 mmHg 24%
    06:00 +15°C° 0 mm 5 mps 721 mmHg 23%
    07:00 +16°C° 0 mm 6 mps 722 mmHg 22%
    08:00 +16°C° 0 mm 7 mps 722 mmHg 21%
    09:00 +21°C° 0 mm 6 mps 722 mmHg 18%
    10:00 +24°C° 0 mm 6 mps 723 mmHg 14%
    11:00 +29°C° 0 mm 6 mps 723 mmHg 11%
    12:00 +30°C° 0 mm 5 mps 722 mmHg 10%
    13:00 +32°C° 0 mm 4 mps 721 mmHg 9%
    14:00 +34°C° 0 mm 4 mps 721 mmHg 7%
    15:00 +34°C° 0 mm 4 mps 720 mmHg 7%
    16:00 +34°C° 0 mm 4 mps 720 mmHg 7%
    17:00 +34°C° 0 mm 5 mps 719 mmHg 7%
    18:00 +30°C° 0 mm 4 mps 719 mmHg 9%
    19:00 +27°C° 0 mm 4 mps 720 mmHg 10%
    20:00 +23°C° 0 mm 4 mps 720 mmHg 12%
    21:00 +22°C° 0 mm 4 mps 720 mmHg 12%
    22:00 +21°C° 0 mm 5 mps 720 mmHg 12%
    23:00 +20°C° 0 mm 5 mps 721 mmHg 13%

    29 January, Wednesday

    Time Temperature Precipitation Wind Pressure Humidity
    00:00 +19°C° 0 mm 5 mps 720 mmHg 13%
    01:00 +19°C° 0 mm 5 mps 720 mmHg 14%
    02:00 +17°C° 0 mm 5 mps 720 mmHg 14%
    03:00 +16°C° 0 mm 5 mps 720 mmHg 15%
    04:00 +16°C° 0 mm 5 mps 720 mmHg 16%
    05:00 +15°C° 0 mm 5 mps 720 mmHg 16%
    06:00 +16°C° 0 mm 6 mps 721 mmHg 16%
    07:00 +16°C° 0 mm 7 mps 722 mmHg 15%
    08:00 +17°C° 0 mm 7 mps 722 mmHg 15%
    09:00 +21°C° 0 mm 7 mps 723 mmHg 13%
    10:00 +26°C° 0 mm 7 mps 723 mmHg 11%
    11:00 +29°C° 0 mm 7 mps 723 mmHg 9%
    12:00 +30°C° 0 mm 7 mps 722 mmHg 8%
    13:00 +33°C° 0 mm 6 mps 722 mmHg 7%
    14:00 +34°C° 0 mm 5 mps 721 mmHg 6%
    15:00 +34°C° 0 mm 5 mps 720 mmHg 6%
    16:00 +34°C° 0 mm 5 mps 720 mmHg 6%
    17:00 +34°C° 0 mm 5 mps 719 mmHg 6%
    18:00 +30°C° 0 mm 5 mps 720 mmHg 8%
    19:00 +27°C° 0 mm 5 mps 720 mmHg 9%
    20:00 +25°C° 0 mm 5 mps 720 mmHg 10%
    21:00 +23°C° 0 mm 5 mps 721 mmHg 11%
    22:00 +22°C° 0 mm 6 mps 721 mmHg 12%
    23:00 +21°C° 0 mm 6 mps 721 mmHg 13%

    30 January, Thursday

    Time Temperature Precipitation Wind Pressure Humidity
    00:00 +20°C° 0 mm 6 mps 721 mmHg 14%
    01:00 +19°C° 0 mm 6 mps 721 mmHg 15%
    02:00 +17°C° 0 mm 6 mps 720 mmHg 16%
    03:00 +17°C° 0 mm 6 mps 720 mmHg 16%
    04:00 +16°C° 0 mm 6 mps 720 mmHg 16%
    05:00 +16°C° 0 mm 6 mps 720 mmHg 16%
    06:00 +16°C° 0 mm 6 mps 721 mmHg 15%
    07:00 +17°C° 0 mm 7 mps 722 mmHg 15%
    08:00 +18°C° 0 mm 7 mps 723 mmHg 14%
    09:00 +22°C° 0 mm 8 mps 723 mmHg 12%
    10:00 +26°C° 0 mm 8 mps 723 mmHg 11%
    11:00 +29°C° 0 mm 8 mps 723 mmHg 9%
    12:00 +30°C° 0 mm 7 mps 722 mmHg 8%
    13:00 +33°C° 0 mm 6 mps 722 mmHg 8%
    14:00 +34°C° 0 mm 5 mps 721 mmHg 7%
    15:00 +34°C° 0 mm 5 mps 720 mmHg 7%
    16:00 +34°C° 0 mm 5 mps 720 mmHg 7%
    17:00 +34°C° 0 mm 5 mps 719 mmHg 7%
    18:00 +30°C° 0 mm 5 mps 719 mmHg 8%
    19:00 +27°C° 0 mm 5 mps 720 mmHg 9%
    20:00 +23°C° 0 mm 5 mps 720 mmHg 11%
    21:00 +23°C° 0 mm 5 mps 720 mmHg 11%
    22:00 +22°C° 0 mm 6 mps 720 mmHg 12%
    23:00 +21°C° 0 mm 7 mps 721 mmHg 12%
    Show more